Weather History for Franklin, NC

Change the Weather History Date:

Monday, May 5, 2014

  Actual Average (KTOC) Record (KTOC)
Temperature  
Mean Temperature 63 °F -  
Max Temperature 84 °F 76 °F 94 °F (2014)
Min Temperature 42 °F 50 °F 57 °F (2014)
Degree Days  
Heating Degree Days 2    
Growing Degree Days 13 (Base 50)    
Moisture  
Dew Point 45 °F    
Average Humidity 65    
Maximum Humidity 100    
Minimum Humidity 14    
Precipitation  
Precipitation 0.00 in - - ()
Sea Level Pressure  
Sea Level Pressure 30.04 in    
Wind  
Wind Speed 2 mph (West)    
Max Wind Speed 18 mph    
Max Gust Speed 28 mph    
Visibility 10 miles    
Events      
Averages and records for this station are not official NWS values.
T = Trace of Precipitation, MM = Missing Value Source: NWS Daily Summary

Daily Weather History Graph

Daily Weather History Graph

Search for Another Location

Airport:

Trip Planner

Search our weather history database for the weather conditions in past years. The results will help you decide how hot, cold, wet, or windy it might be!

Date:

Astronomy

May. 05, 2014 Rise Set
Actual Time 6:38 AM EDT 8:22 PM EDT
Civil Twilight 6:10 AM EDT 8:50 PM EDT
Nautical Twilight 5:37 AM EDT 9:23 PM EDT
Astronomical Twilight 5:02 AM EDT 9:58 PM EDT
Moon 11:56 AM EDT (5/5) 1:06 AM EDT (5/5)
Length of Visible Light 14h 39m
Length of Day
13h 44m
Waxing Crescent, 36% of the Moon is Illuminated
May 5
Waxing Crescent
May 6
First Quarter
May 14
Full
May 21
Last Quarter
May 28
New

Hourly Weather History & Observations

Time (EDT) Temp. Dew Point Humidity Pressure Visibility Wind Dir Wind Speed Gust Speed Precip Events Conditions
12:15 AM 50.4 °F 47.7 °F 90% 30.07 in 10.0 mi Calm Calm - N/A   Clear
12:35 AM 50.0 °F 47.3 °F 90% 30.07 in 10.0 mi Calm Calm - N/A   Clear
12:55 AM 49.3 °F 47.7 °F 94% 30.08 in 10.0 mi Calm Calm - N/A   Clear
1:15 AM 48.7 °F 47.1 °F 94% 30.08 in 10.0 mi Calm Calm - N/A   Clear
1:35 AM 48.2 °F 47.3 °F 97% 30.08 in 10.0 mi Calm Calm - N/A   Clear
1:55 AM 47.1 °F 46.6 °F 98% 30.08 in 10.0 mi Calm Calm - N/A   Clear
2:15 AM 46.9 °F 46.0 °F 97% 30.07 in 10.0 mi Calm Calm - N/A   Clear
2:35 AM 46.6 °F 46.4 °F 99% 30.07 in 10.0 mi Calm Calm - N/A   Clear
2:55 AM 45.7 °F 45.7 °F 100% 30.07 in 10.0 mi Calm Calm - N/A   Clear
3:15 AM 46.2 °F 46.2 °F 100% 30.07 in 10.0 mi Calm Calm - N/A   Clear
3:35 AM 45.5 °F 45.5 °F 100% 30.07 in 7.0 mi Calm Calm - N/A   Clear
3:55 AM 44.6 °F 44.6 °F 100% 30.07 in 10.0 mi Calm Calm - N/A   Clear
4:15 AM 44.8 °F 44.8 °F 100% 30.07 in 10.0 mi Calm Calm - N/A   Clear
4:35 AM 44.2 °F 44.2 °F 100% 30.08 in 7.0 mi Calm Calm - N/A   Clear
4:55 AM 43.9 °F 43.9 °F 100% 30.08 in 7.0 mi Calm Calm - N/A   Clear
5:15 AM 43.5 °F 43.5 °F 100% 30.08 in 10.0 mi Calm Calm - N/A   Clear
5:35 AM 43.3 °F 43.3 °F 100% 30.08 in 10.0 mi Calm Calm - N/A   Clear
5:55 AM 43.2 °F 43.2 °F 100% 30.08 in 7.0 mi Calm Calm - N/A   Clear
6:15 AM 42.8 °F 42.8 °F 100% 30.09 in 10.0 mi Calm Calm - N/A   Clear
6:35 AM 42.6 °F 42.6 °F 100% 30.10 in 10.0 mi Calm Calm - N/A   Clear
6:55 AM 42.4 °F 42.4 °F 100% 30.11 in 10.0 mi Calm Calm - N/A   Clear
7:15 AM 42.8 °F 42.8 °F 100% 30.11 in 10.0 mi Calm Calm - N/A   Clear
7:35 AM 44.6 °F 44.6 °F 100% 30.12 in 10.0 mi Calm Calm - N/A   Clear
7:55 AM 46.6 °F 46.6 °F 100% 30.12 in 10.0 mi Calm Calm - N/A   Clear
8:15 AM 48.4 °F 48.4 °F 100% 30.12 in 10.0 mi Calm Calm - N/A   Clear
8:35 AM 50.0 °F 49.1 °F 97% 30.12 in 10.0 mi Calm Calm - N/A   Clear
8:55 AM 53.1 °F 48.9 °F 86% 30.11 in 10.0 mi Calm Calm - N/A   Clear
9:15 AM 56.5 °F 49.1 °F 76% 30.10 in 10.0 mi Calm Calm - N/A   Clear
9:35 AM 59.5 °F 49.8 °F 70% 30.10 in 10.0 mi Calm Calm - N/A   Clear
9:55 AM 61.9 °F 48.9 °F 62% 30.10 in 10.0 mi Calm Calm - N/A   Clear
10:15 AM 64.8 °F 51.3 °F 62% 30.09 in 10.0 mi Calm Calm - N/A   Clear
10:35 AM 66.6 °F 52.0 °F 59% 30.09 in 10.0 mi Calm Calm - N/A   Clear
10:55 AM 69.8 °F 53.4 °F 56% 30.08 in 10.0 mi Calm Calm - N/A   Clear
11:15 AM 73.6 °F 48.6 °F 41% 30.08 in 10.0 mi Calm Calm - N/A   Clear
11:35 AM 73.6 °F 48.9 °F 42% 30.07 in 10.0 mi Calm Calm - N/A   Clear
11:55 AM 76.1 °F 48.0 °F 37% 30.07 in 10.0 mi Calm Calm - N/A   Clear
12:15 PM 76.3 °F 47.3 °F 36% 30.06 in 10.0 mi Calm Calm - N/A   Clear
12:35 PM 76.6 °F 45.7 °F 33% 30.05 in 10.0 mi Calm Calm - N/A   Clear
12:55 PM 78.3 °F 47.5 °F 34% 30.05 in 10.0 mi Calm Calm - N/A   Clear
1:15 PM 79.3 °F 46.0 °F 31% 30.04 in 10.0 mi Calm Calm - N/A   Clear
1:35 PM 81.3 °F 41.0 °F 24% 30.03 in 10.0 mi West 15.0 mph 18.4 mph N/A   Clear
1:55 PM 82.9 °F 39.4 °F 21% 30.02 in 10.0 mi WSW 6.9 mph - N/A   Clear
2:15 PM 82.6 °F 33.8 °F 17% 30.01 in 10.0 mi West 17.3 mph 24.2 mph N/A   Clear
2:35 PM 82.9 °F 32.7 °F 16% 30.00 in 10.0 mi WSW 18.4 mph 26.5 mph N/A   Clear
2:55 PM 83.7 °F 33.4 °F 16% 30.00 in 10.0 mi West 15.0 mph 23.0 mph N/A   Clear
3:15 PM 84.6 °F 31.5 °F 15% 29.99 in 10.0 mi West 15.0 mph 26.5 mph N/A   Clear
3:35 PM 84.0 °F 29.1 °F 14% 29.99 in 10.0 mi West 15.0 mph 27.6 mph N/A   Clear
3:55 PM 84.4 °F 29.3 °F 14% 29.98 in 10.0 mi West 11.5 mph 25.3 mph N/A   Clear
4:15 PM 84.4 °F 31.5 °F 15% 29.97 in 10.0 mi WNW 9.2 mph 18.4 mph N/A   Clear
4:35 PM 84.2 °F 31.3 °F 15% 29.96 in 10.0 mi WNW 12.7 mph 18.4 mph N/A   Clear
4:55 PM 84.4 °F 33.8 °F 16% 29.96 in 10.0 mi WNW 9.2 mph - N/A   Clear
5:15 PM 84.6 °F 34.9 °F 17% 29.95 in 10.0 mi WNW 9.2 mph - N/A   Clear
5:35 PM 83.7 °F 36.7 °F 19% 29.95 in 10.0 mi West 8.1 mph 16.1 mph N/A   Clear
5:55 PM 83.3 °F 37.2 °F 19% 29.95 in 10.0 mi NW 3.5 mph - N/A   Clear
6:15 PM 82.8 °F 40.6 °F 22% 29.95 in 10.0 mi West 6.9 mph - N/A   Clear
6:35 PM 82.2 °F 40.3 °F 23% 29.95 in 10.0 mi West 8.1 mph - N/A   Clear
7:15 PM 80.1 °F 43.0 °F 27% 29.95 in 10.0 mi West 4.6 mph - N/A   Clear
7:35 PM 77.4 °F 45.3 °F 32% 29.95 in 10.0 mi West 6.9 mph - N/A   Clear
7:55 PM 74.1 °F 50.2 °F 43% 29.96 in 10.0 mi Calm Calm - N/A   Clear
8:15 PM 68.9 °F 50.7 °F 52% 29.96 in 10.0 mi Calm Calm - N/A   Clear
8:35 PM 65.7 °F 53.2 °F 64% 29.96 in 10.0 mi Calm Calm - N/A   Clear
8:55 PM 63.5 °F 54.1 °F 72% 29.96 in 10.0 mi Calm Calm - N/A   Clear
9:15 PM 61.7 °F 53.4 °F 74% 29.97 in 10.0 mi Calm Calm - N/A   Clear
9:35 PM 60.3 °F 53.4 °F 78% 29.97 in 7.0 mi Calm Calm - N/A   Clear
9:55 PM 59.0 °F 52.2 °F 78% 29.98 in 10.0 mi Calm Calm - N/A   Clear
10:15 PM 57.6 °F 50.4 °F 77% 29.99 in 10.0 mi Calm Calm - N/A   Clear
10:35 PM 57.0 °F 51.1 °F 81% 29.99 in 10.0 mi Calm Calm - N/A   Clear
10:55 PM 55.9 °F 50.9 °F 83% 29.99 in 10.0 mi Calm Calm - N/A   Clear
11:15 PM 54.5 °F 50.7 °F 87% 29.99 in 10.0 mi Calm Calm - N/A   Clear
11:35 PM 54.9 °F 50.5 °F 85% 29.99 in 10.0 mi Calm Calm - N/A   Clear
11:55 PM 54.7 °F 50.0 °F 84% 30.00 in 10.0 mi Calm Calm - N/A   Clear